Location: ????????
(41.2031°N, 22.5756°E)
Time: 15:11:32
(UTC+00:00)

NOSS 3-2 (A) - Pass Details

Date: 01 December 2020
Orbit: 791 x 1417 km, 63.4° (Epoch: 20 December)

Event Time Altitude Azimuth Distance (km) Brightness Sun altitude
Rises 16:43:02 0° 208° (SSW) 3,305 6.9 -18.6°
Reaches altitude 10° 16:45:21 10° 207° (SSW) 2,412 6.1 -19.0°
Maximum altitude 16:50:51 77° 122° (ESE) 909 3.2 -20.1°
Enters shadow 16:54:00 30° 41° (NE) 1,600 4.2 -20.6°
